sat.trackr.live / text

‹ back to catalog

KUIPER-00241

NORAD 67149 · 2025-301S

PAYLOAD ACTIVE UNKNOWN

§ Identity

Operator
Country
US
Launch date
2025-12-16
Launch site
AFETR
Launch vehicle
Mass (kg)
RCS (m²)

External: N2YO · Heavens-Above · Gunter

§ Orbital elements

Epoch: 2026-09-20T13:45:15.114240Z

Period
97.30 min
Inclination
51.9031°
Eccentricity
0.0000774
Mean motion
14.79933945 rev/d
Perigee alt
629.0 km
Apogee alt
630.1 km
Semi-major
7,007.7 km
B*
6.7858e-5
RAAN
293.8950°
Arg perigee
63.3110°
Mean anomaly
296.7932°
Rev number
4,278

§ Raw data

KUIPER-002411 67149U 25301S   26263.57309160  .00000296  00000+0  67858-4 0  99922 67149  51.9031 293.8950 0000774  63.3110 296.7932 14.79933945 42789

JSON: /api/v1/satellites/67149 · /tle

For live sub-satellite position, see the globe view (requires WebGL).

§ Visibility from observer

Set your observer location to see the next 7 days of passes ≥ 10°. The values pass through the URL so the page stays shareable.

No JS? Fill the form by hand. The geolocation button needs JavaScript.